DW7889 Weather Reports


Display with metric or nautical units.
time (UTC)temp
F
wind
direction
speed
MPH
gust
MPH
rain 1hr
in
rain 24hr
in
rain mn
in
humidity
%
barometer
mb
20260505022543 63 360 7.0 13.0 0.00 0.59 0.15 93 1020.1
20260505021537 63 16 7.0 12.0 0.00 0.59 0.15 93 1020.2
20260505021057 63 11 9.0 13.0 0.00 0.59 0.15 93 1020.1
20260505020538 63 358 9.0 13.0 0.00 0.59 0.15 93 1020.1
20260505020104 63 340 8.0 12.0 0.00 0.59 0.15 94 1020.0
20260505015543 63 3 9.0 12.0 0.00 0.59 0.15 94 1020.0
20260505015046 63 21 8.0 12.0 0.00 0.59 0.15 94 1020.0
20260505014528 63 338 8.0 12.0 0.00 0.59 0.15 94 1020.0
20260505014051 63 342 8.0 15.0 0.00 0.59 0.15 94 1019.9
20260505013535 63 360 9.0 15.0 0.00 0.59 0.15 94 1019.8
20260505013041 63 25 8.0 12.0 0.00 0.59 0.15 95 1019.8
20260505012527 63 1 8.0 12.0 0.00 0.59 0.15 95 1019.8
20260505012031 63 5 8.0 12.0 0.00 0.59 0.15 95 1019.9
20260505011534 63 15 8.0 12.0 0.00 0.59 0.15 95 1019.9
20260505011034 63 2 8.0 12.0 0.00 0.59 0.15 95 1019.9
20260505010537 63 24 5.0 12.0 0.00 0.59 0.15 95 1019.7
20260505010039 63 2 7.0 10.0 0.00 0.59 0.15 95 1019.8
20260505005545 63 6 6.0 9.0 0.00 0.59 0.15 95 1019.7
20260505005028 63 356 5.0 9.0 0.00 0.59 0.15 95 1019.7
20260505004531 63 11 5.0 11.0 0.00 0.59 0.15 95 1019.7
20260505004033 63 3 7.0 12.0 0.00 0.59 0.15 95 1019.8
20260505003538 63 357 7.0 12.0 0.00 0.59 0.15 95 1019.8
20260505003100 63 1 7.0 10.0 0.00 0.59 0.15 95 1019.7
20260505002541 63 13 7.0 9.0 0.00 0.59 0.15 94 1019.7
20260505002027 63 11 6.0 10.0 0.00 0.59 0.15 95 1019.8
20260505001533 63 20 6.0 12.0 0.00 0.59 0.15 95 1019.7
20260505001035 63 360 8.0 12.0 0.00 0.59 0.15 95 1019.6
20260505000536 63 1 8.0 13.0 0.00 0.59 0.15 95 1019.7
20260505000041 63 358 8.0 13.0 0.04 0.59 0.15 95 1019.5
20260504235543 63 14 7.0 13.0 0.04 0.59 0.15 95 1019.5
20260504235041 63 324 7.0 12.0 0.04 0.59 0.15 95 1019.5
20260504234542 63 1 8.0 12.0 0.04 0.59 0.15 95 1019.4
20260504234046 63 11 8.0 12.0 0.04 0.59 0.15 95 1019.3
20260504233546 63 21 8.0 11.0 0.08 0.59 0.15 95 1019.3
20260504233028 63 11 7.0 13.0 0.08 0.59 0.15 94 1019.2
20260504232530 63 360 7.0 13.0 0.08 0.59 0.15 94 1019.2
20260504232030 63 40 7.0 13.0 0.08 0.59 0.15 94 1019.2
20260504231535 63 345 7.0 11.0 0.08 0.59 0.15 94 1019.1
20260504231037 63 19 7.0 10.0 0.08 0.59 0.15 94 1019.2
20260504230538 63 13 6.0 11.0 0.08 0.59 0.15 94 1019.0
20260504230042 63 2 7.0 11.0 0.04 0.55 0.14 94 1018.9
20260504225602 63 322 8.0 11.0 0.04 0.55 0.14 94 1019.0
20260504225045 63 10 6.0 9.0 0.04 0.55 0.14 94 1018.9
20260504224528 63 359 6.0 8.0 0.04 0.55 0.14 94 1018.8
20260504224033 63 357 5.0 9.0 0.04 0.55 0.14 94 1018.6
20260504223534 63 5 6.0 10.0 0.00 0.51 0.13 94 1018.8
20260504223036 63 2 7.0 10.0 0.00 0.51 0.13 94 1018.7
20260504222559 63 358 6.0 9.0 0.00 0.51 0.13 94 1018.7
20260504222041 63 358 6.0 9.0 0.00 0.51 0.13 94 1018.7
20260504221543 63 1 6.0 12.0 0.00 0.51 0.13 94 1018.6
20260504221045 63 1 7.0 12.0 0.00 0.51 0.13 94 1018.5
20260504220603 63 358 6.0 12.0 0.00 0.51 0.13 94 1018.4
20260504220046 63 8 5.0 10.0 0.00 0.51 0.13 94 1018.4
20260504215030 63 16 8.0 12.0 0.00 0.51 0.13 94 1018.5
20260504214532 63 352 7.0 10.0 0.00 0.51 0.13 94 1018.6
20260504214052 63 25 7.0 11.0 0.04 0.51 0.13 94 1018.6
20260504213530 63 16 6.0 13.0 0.04 0.51 0.13 94 1018.6
20260504212551 63 29 7.0 11.0 0.04 0.51 0.13 94 1018.5
20260504212031 63 15 7.0 12.0 0.04 0.51 0.13 94 1018.4
20260504211551 63 355 7.0 13.0 0.04 0.51 0.13 94 1018.4
20260504211034 63 360 7.0 11.0 0.04 0.51 0.13 94 1018.2
20260504210536 63 29 6.0 12.0 0.04 0.51 0.13 94 1018.3
20260504210041 63 17 7.0 14.0 0.04 0.51 0.13 94 1018.3
20260504205542 63 10 9.0 14.0 0.04 0.51 0.13 94 1018.3
20260504205045 63 330 7.0 17.0 0.04 0.51 0.13 94 1018.2
20260504204543 63 360 10.0 17.0 0.04 0.51 0.13 94 1018.1
20260504204045 63 7 8.0 14.0 0.00 0.47 0.12 94 1018.1
20260504203531 63 338 7.0 12.0 0.00 0.47 0.12 94 1017.9
20260504203055 63 359 7.0 14.0 0.00 0.47 0.12 94 1017.8
20260504202527 63 4 9.0 14.0 0.00 0.47 0.12 94 1017.8
20260504202031 63 1 7.0 11.0 0.00 0.47 0.12 94 1017.8
20260504201532 63 1 7.0 13.0 0.04 0.47 0.12 94 1017.9
20260504201038 63 27 8.0 13.0 0.04 0.47 0.12 94 1017.9
20260504200600 63 25 7.0 11.0 0.08 0.47 0.12 94 1017.8
20260504200041 63 360 6.0 13.0 0.08 0.47 0.12 94 1017.6
20260504195544 63 15 7.0 13.0 0.12 0.47 0.12 94 1017.5
20260504195045 63 23 7.0 13.0 0.16 0.47 0.12 94 1017.5
20260504194544 63 9 6.0 13.0 0.20 0.47 0.12 94 1017.5
20260504194029 63 10 6.0 11.0 0.24 0.47 0.12 94 1017.4
20260504193529 63 359 7.0 12.0 0.31 0.47 0.12 94 1017.5
20260504193033 63 7 8.0 12.0 0.35 0.47 0.12 94 1017.6
20260504192541 63 338 7.0 14.0 0.39 0.47 0.12 94 1017.6
20260504192027 63 1 6.0 13.0 0.39 0.47 0.12 94 1017.5
20260504191531 62 2 8.0 13.0 0.39 0.43 0.11 93 1017.6
20260504191035 62 4 8.0 13.0 0.39 0.43 0.11 93 1017.6
20260504190537 62 359 7.0 13.0 0.39 0.39 0.10 93 1017.7
20260504190039 62 352 5.0 10.0 0.39 0.39 0.10 93 1017.8
20260504185540 62 358 6.0 10.0 0.35 0.35 0.09 92 1017.8
20260504185043 62 359 5.0 11.0 0.31 0.31 0.08 92 1017.8
20260504184601 62 360 7.0 11.0 0.28 0.28 0.07 92 1017.9
20260504184043 63 359 6.0 12.0 0.20 0.20 0.05 92 1017.7
20260504183544 63 339 8.0 12.0 0.16 0.16 0.04 91 1017.9
20260504183045 63 355 6.0 11.0 0.12 0.12 0.03 91 1017.8
20260504182529 63 334 6.0 11.0 0.08 0.08 0.02 90 1017.8
20260504182035 63 8 5.0 11.0 0.08 0.08 0.02 89 1017.7
20260504181537 63 2 6.0 9.0 0.04 0.04 0.01 88 1017.7
20260504181042 63 322 6.0 10.0 0.04 0.04 0.01 87 1017.6
20260504180524 64 3 7.0 10.0 0.00 0.00 0.00 87 1017.8
20260504180030 64 1 6.0 10.0 0.00 0.00 0.00 86 1017.6
20260504175535 64 1 5.0 9.0 0.00 0.00 0.00 85 1017.6
20260504175038 64 7 6.0 8.0 0.00 0.00 0.00 85 1017.5
20260504174541 64 24 5.0 9.0 0.00 0.00 0.00 84 1017.4
20260504174104 64 6 6.0 10.0 0.00 0.00 0.00 84 1017.5
20260504173528 64 16 7.0 10.0 0.00 0.00 0.00 83 1017.6
20260504173031 65 356 6.0 9.0 0.00 0.00 0.00 83 1017.6
20260504172532 65 4 5.0 9.0 0.00 0.00 0.00 83 1017.5
20260504172054 65 5 5.0 10.0 0.00 0.00 0.00 82 1017.8
20260504171557 65 34 7.0 13.0 0.00 0.00 0.00 82 1017.9
20260504170104 65 346 327.0 327.0 0.00 0.00 0.00 82 1018.1
20260504151034 63 19 10.0 15.0 0.00 0.00 0.00 80 1019.4
20260504150533 63 359 8.0 12.0 0.00 0.00 0.00 80 1019.4
20260504141036 64 13 327.0 327.0 0.00 0.00 0.00 79 1020.0
20260504140109 63 22 327.0 327.0 0.00 0.00 0.00 80 1020.1
20260504110530 54 25 8.0 13.0 0.00 0.00 0.00 88 1019.4
20260504100540 53 1 8.0 14.0 0.00 0.00 0.00 89 1019.0
20260504081540 53 358 6.0 11.0 0.00 0.00 0.00 89 1018.4
20260504081041 53 353 5.0 11.0 0.00 0.00 0.00 89 1018.4
20260504080545 53 52 5.0 10.0 0.00 0.00 0.00 89 1018.4
20260504050524 54 12 5.0 10.0 0.00 0.00 0.00 88 1019.7
20260504045537 54 2 4.0 14.0 0.00 0.00 0.00 88 1019.8
20260504045041 54 11 7.0 14.0 0.00 0.00 0.00 88 1019.8
20260504044544 54 85 4.0 10.0 0.00 0.00 0.00 88 1019.9
20260504044028 54 27 6.0 11.0 0.00 0.00 0.00 87 1019.9
20260504043532 54 58 3.0 10.0 0.00 0.00 0.00 87 1019.9
20260504043036 54 13 5.0 12.0 0.00 0.00 0.00 87 1019.8
20260504042542 54 7 5.0 12.0 0.00 0.00 0.00 87 1019.8
20260504042028 54 6 5.0 11.0 0.00 0.00 0.00 87 1019.9
20260504041534 54 30 6.0 11.0 0.00 0.00 0.00 86 1019.9
20260504041038 54 37 4.0 15.0 0.00 0.00 0.00 86 1020.2
20260504040541 55 20 8.0 15.0 0.00 0.00 0.00 86 1020.2
20260504040028 54 357 7.0 15.0 0.00 0.00 0.00 86 1020.3
20260504035531 55 4 6.0 14.0 0.00 0.00 0.00 86 1020.2
20260504035035 55 34 7.0 15.0 0.00 0.00 0.00 86 1020.2
20260504034537 55 25 7.0 15.0 0.00 0.00 0.00 86 1020.2
20260504034041 54 44 7.0 13.0 0.00 0.00 0.00 85 1020.3
20260504033545 54 57 6.0 11.0 0.00 0.00 0.00 85 1020.3
20260504033029 54 12 7.0 11.0 0.00 0.00 0.00 85 1020.4
20260504032533 54 6 6.0 9.0 0.00 0.00 0.00 85 1020.4
20260504032041 54 22 5.0 8.0 0.00 0.00 0.00 84 1020.5
20260504031544 54 358 3.0 8.0 0.00 0.00 0.00 84 1020.5
20260504031027 54 29 3.0 7.0 0.00 0.00 0.00 84 1020.5
20260504030529 55 8 3.0 8.0 0.00 0.00 0.00 83 1020.6
20260504030034 55 21 4.0 9.0 0.00 0.00 0.00 83 1020.6
20260504025538 55 13 4.0 11.0 0.00 0.00 0.00 83 1020.6
20260504025040 55 20 5.0 11.0 0.00 0.00 0.00 82 1020.6
20260504024601 55 5 5.0 9.0 0.00 0.00 0.00 82 1020.6
20260504024043 55 356 5.0 9.0 0.00 0.00 0.00 81 1020.6
20260504023545 55 13 6.0 10.0 0.00 0.00 0.00 81 1020.7
20260504023026 55 15 5.0 11.0 0.00 0.00 0.00 80 1020.8